Location: Battersea Observatory
(44.4318°N, 76.3841°W)
Time: 08:24:16
(UTC-05:00)

ISS - Pass Details

Date: 30 November 2021
Orbit: 413 x 422 km, 51.6° (Epoch: 24 January)

Event Time Altitude Azimuth Distance (km) Brightness Sun altitude
Rises 18:00:21 0° 297° (WNW) 2,383 0.9 -16.1°
Reaches altitude 10° 18:02:42 10° 311° (NW) 1,515 -0.5 -16.5°
Maximum altitude 18:05:37 26° 10° (N) 877 -2.4 -17.0°
Enters shadow 18:05:47 26° 15° (NNE) 880 -2.4 -17.0°
